Previsão horária em Celakovice

Hoje, 25 Julho, Domingo

Tempo Temperatura Precipitação Vento Pressão Humidade
00:00 +20°C° 0 mm 2 m/s 740 mmHg 67%
01:00 +20°C° 0 mm 2 m/s 740 mmHg 68%
02:00 +19°C° 0.1 mm 2 m/s 740 mmHg 72%
03:00 +19°C° 0.1 mm 2 m/s 740 mmHg 76%
04:00 +19°C° 0.1 mm 2 m/s 739 mmHg 79%
05:00 +20°C° 0.1 mm 2 m/s 740 mmHg 79%
06:00 +20°C° 0.1 mm 2 m/s 740 mmHg 78%
07:00 +21°C° 0 mm 2 m/s 740 mmHg 76%
08:00 +24°C° 0 mm 2 m/s 740 mmHg 70%
09:00 +25°C° 0 mm 2 m/s 740 mmHg 65%
10:00 +27°C° 0 mm 2 m/s 740 mmHg 59%
11:00 +28°C° 0 mm 2 m/s 740 mmHg 55%
12:00 +29°C° 0 mm 2 m/s 740 mmHg 52%
13:00 +30°C° 0 mm 2 m/s 740 mmHg 48%
14:00 +29°C° 0.3 mm 2 m/s 739 mmHg 53%
15:00 +28°C° 0.3 mm 3 m/s 739 mmHg 58%
16:00 +27°C° 0.3 mm 3 m/s 739 mmHg 62%
17:00 +26°C° 2.4 mm 3 m/s 739 mmHg 71%
18:00 +24°C° 2.4 mm 2 m/s 739 mmHg 79%
19:00 +21°C° 2.4 mm 2 m/s 739 mmHg 87%
20:00 +21°C° 0.5 mm 2 m/s 739 mmHg 88%
21:00 +21°C° 0.5 mm 1 m/s 740 mmHg 89%
22:00 +21°C° 0.5 mm 1 m/s 740 mmHg 90%
23:00 +20°C° 0.2 mm 1 m/s 740 mmHg 90%

Amanhã, 26 Julho, Segunda-feira

Tempo Temperatura Precipitação Vento Pressão Humidade
00:00 +20°C° 0.2 mm 1 m/s 740 mmHg 90%
01:00 +18°C° 0.2 mm 0 m/s 740 mmHg 90%
02:00 +20°C° 0 mm 1 m/s 740 mmHg 90%
03:00 +19°C° 0 mm 1 m/s 740 mmHg 90%
04:00 +19°C° 0 mm 1 m/s 740 mmHg 91%
05:00 +20°C° 0 mm 1 m/s 741 mmHg 87%
06:00 +21°C° 0 mm 1 m/s 741 mmHg 83%
07:00 +22°C° 0 mm 1 m/s 741 mmHg 80%
08:00 +24°C° 0 mm 1 m/s 741 mmHg 74%
09:00 +25°C° 0 mm 1 m/s 741 mmHg 67%
10:00 +27°C° 0 mm 1 m/s 741 mmHg 61%
11:00 +28°C° 0 mm 1 m/s 741 mmHg 57%
12:00 +29°C° 0 mm 1 m/s 741 mmHg 53%
13:00 +30°C° 0 mm 1 m/s 741 mmHg 49%
14:00 +30°C° 0 mm 1 m/s 741 mmHg 47%
15:00 +30°C° 0 mm 1 m/s 741 mmHg 46%
16:00 +31°C° 0 mm 1 m/s 740 mmHg 44%
17:00 +29°C° 0.3 mm 2 m/s 740 mmHg 54%
18:00 +26°C° 0.3 mm 3 m/s 741 mmHg 64%
19:00 +23°C° 0.3 mm 4 m/s 741 mmHg 73%
20:00 +22°C° 1.1 mm 3 m/s 741 mmHg 80%
21:00 +20°C° 1.1 mm 3 m/s 741 mmHg 86%
22:00 +19°C° 1.1 mm 2 m/s 742 mmHg 92%
23:00 +18°C° 0.1 mm 2 m/s 742 mmHg 93%

Depois de amanhã, 27 Julho, Terça-feira

Tempo Temperatura Precipitação Vento Pressão Humidade
00:00 +18°C° 0.1 mm 2 m/s 742 mmHg 94%
01:00 +18°C° 0.1 mm 2 m/s 742 mmHg 95%
02:00 +18°C° 0 mm 2 m/s 742 mmHg 95%
03:00 +17°C° 0 mm 2 m/s 742 mmHg 95%
04:00 +18°C° 0 mm 1 m/s 742 mmHg 95%
05:00 +18°C° 0 mm 2 m/s 743 mmHg 91%
06:00 +19°C° 0 mm 2 m/s 743 mmHg 88%
07:00 +20°C° 0 mm 2 m/s 743 mmHg 84%
08:00 +21°C° 0 mm 2 m/s 743 mmHg 76%
09:00 +24°C° 0 mm 2 m/s 743 mmHg 69%
10:00 +26°C° 0 mm 1 m/s 743 mmHg 62%
11:00 +27°C° 0 mm 2 m/s 743 mmHg 57%
12:00 +28°C° 0 mm 2 m/s 743 mmHg 53%
13:00 +29°C° 0 mm 2 m/s 743 mmHg 48%
14:00 +29°C° 0 mm 3 m/s 743 mmHg 48%
15:00 +29°C° 0 mm 3 m/s 743 mmHg 47%
16:00 +29°C° 0 mm 4 m/s 743 mmHg 46%
17:00 +28°C° 0 mm 3 m/s 742 mmHg 51%
18:00 +27°C° 0 mm 2 m/s 742 mmHg 57%
19:00 +25°C° 0 mm 1 m/s 742 mmHg 62%
20:00 +24°C° 0 mm 1 m/s 743 mmHg 64%
21:00 +23°C° 0 mm 1 m/s 743 mmHg 66%
22:00 +22°C° 0 mm 1 m/s 743 mmHg 68%
23:00 +22°C° 0 mm 1 m/s 743 mmHg 70%

28 Julho, Quarta-feira

Tempo Temperatura Precipitação Vento Pressão Humidade
00:00 +22°C° 0 mm 1 m/s 743 mmHg 71%
01:00 +21°C° 0 mm 1 m/s 743 mmHg 73%
02:00 +21°C° 0 mm 1 m/s 743 mmHg 74%
03:00 +20°C° 0 mm 1 m/s 743 mmHg 74%
04:00 +20°C° 0 mm 1 m/s 743 mmHg 75%
05:00 +21°C° 0 mm 1 m/s 743 mmHg 74%
06:00 +21°C° 0 mm 1 m/s 743 mmHg 73%
07:00 +21°C° 0 mm 2 m/s 743 mmHg 72%
08:00 +21°C° 0 mm 2 m/s 743 mmHg 71%
09:00 +23°C° 0 mm 2 m/s 743 mmHg 70%
10:00 +23°C° 0 mm 1 m/s 743 mmHg 68%
11:00 +23°C° 0.1 mm 2 m/s 743 mmHg 69%
12:00 +23°C° 0.1 mm 2 m/s 743 mmHg 69%
13:00 +22°C° 0.1 mm 3 m/s 744 mmHg 69%
14:00 +21°C° 0.4 mm 3 m/s 744 mmHg 76%
15:00 +20°C° 0.4 mm 3 m/s 744 mmHg 82%
16:00 +19°C° 0.4 mm 3 m/s 744 mmHg 89%
17:00 +19°C° 0.6 mm 3 m/s 744 mmHg 90%
18:00 +19°C° 0.6 mm 2 m/s 744 mmHg 91%
19:00 +18°C° 0.6 mm 2 m/s 744 mmHg 92%
20:00 +18°C° 0 mm 2 m/s 745 mmHg 93%
21:00 +17°C° 0 mm 2 m/s 745 mmHg 94%
22:00 +16°C° 0 mm 2 m/s 745 mmHg 94%
23:00 +16°C° 0 mm 2 m/s 745 mmHg 94%

29 Julho, Quinta-feira

Tempo Temperatura Precipitação Vento Pressão Humidade
00:00 +16°C° 0 mm 2 m/s 745 mmHg 94%
01:00 +16°C° 0 mm 1 m/s 745 mmHg 94%
02:00 +15°C° 0 mm 1 m/s 745 mmHg 94%
03:00 +15°C° 0 mm 1 m/s 744 mmHg 94%
04:00 +15°C° 0 mm 1 m/s 744 mmHg 94%
05:00 +16°C° 0 mm 1 m/s 745 mmHg 90%
06:00 +18°C° 0 mm 1 m/s 745 mmHg 87%
07:00 +19°C° 0 mm 1 m/s 745 mmHg 83%
08:00 +21°C° 0 mm 1 m/s 745 mmHg 76%
09:00 +23°C° 0 mm 2 m/s 745 mmHg 70%
10:00 +25°C° 0 mm 2 m/s 745 mmHg 63%
11:00 +26°C° 0 mm 2 m/s 744 mmHg 57%
12:00 +27°C° 0 mm 2 m/s 744 mmHg 52%
13:00 +28°C° 0 mm 2 m/s 743 mmHg 46%
14:00 +29°C° 0 mm 2 m/s 743 mmHg 45%
15:00 +29°C° 0 mm 2 m/s 743 mmHg 44%
16:00 +30°C° 0 mm 1 m/s 742 mmHg 44%
17:00 +29°C° 0 mm 1 m/s 742 mmHg 50%
18:00 +27°C° 0 mm 1 m/s 742 mmHg 56%
19:00 +26°C° 0 mm 1 m/s 742 mmHg 62%
20:00 +25°C° 0.3 mm 1 m/s 741 mmHg 69%
21:00 +23°C° 0.3 mm 2 m/s 741 mmHg 76%
22:00 +21°C° 0.3 mm 2 m/s 741 mmHg 82%
23:00 +20°C° 0.3 mm 2 m/s 740 mmHg 84%

30 Julho, Sexta-feira

Tempo Temperatura Precipitação Vento Pressão Humidade
00:00 +20°C° 0.3 mm 2 m/s 740 mmHg 86%
01:00 +19°C° 0.3 mm 2 m/s 740 mmHg 88%
02:00 +19°C° 0 mm 2 m/s 740 mmHg 89%
03:00 +19°C° 0 mm 2 m/s 740 mmHg 90%
04:00 +19°C° 0 mm 2 m/s 740 mmHg 91%
05:00 +20°C° 0 mm 2 m/s 740 mmHg 88%
06:00 +21°C° 0 mm 2 m/s 740 mmHg 86%
07:00 +23°C° 0 mm 1 m/s 740 mmHg 84%
08:00 +24°C° 0 mm 3 m/s 740 mmHg 77%
09:00 +25°C° 0 mm 4 m/s 740 mmHg 71%
10:00 +27°C° 0 mm 5 m/s 740 mmHg 64%
11:00 +27°C° 0 mm 5 m/s 740 mmHg 63%
12:00 +27°C° 0 mm 5 m/s 740 mmHg 62%
13:00 +27°C° 0 mm 5 m/s 740 mmHg 61%
14:00 +27°C° 0.2 mm 5 m/s 740 mmHg 63%
15:00 +27°C° 0.2 mm 4 m/s 740 mmHg 65%
16:00 +26°C° 0.2 mm 3 m/s 740 mmHg 67%
17:00 +25°C° 0.2 mm 3 m/s 740 mmHg 71%
18:00 +24°C° 0.2 mm 2 m/s 740 mmHg 75%
19:00 +24°C° 0.2 mm 2 m/s 740 mmHg 79%
20:00 +23°C° 0 mm 2 m/s 740 mmHg 81%
21:00 +21°C° 0 mm 2 m/s 740 mmHg 83%
22:00 +20°C° 0 mm 2 m/s 740 mmHg 86%
23:00 +19°C° 0 mm 2 m/s 740 mmHg 87%
Mostrar mais

Necessitamos do seu Consentimento

A Meteoprog e os seus Fornecedores de Serviços podem armazenar e aceder a dados pessoais como cookies, identificadores do dispositivo ou outras tecnologias semelhantes existentes no seu dispositivo e processar estes dados para personalizar conteúdos e anúncios, assim como funcionalidades nas redes sociais e análise de tráfego.

  • Armazenar e/ou aceder a informações no seu dispositivo

    Os cookies, identificadores do dispositivo ou outras informações podem ser armazenados ou acedidos no seu dispositivo, para os fins acima indicados.

  • Anúncios e conteúdos personalizados, medição de anúncios e conteúdos, dados sobre o público-alvo e desenvolvimento de produtos

    Os anúncios e os conteúdos podem ser personalizados com base num perfil. Podem ser adicionados dados adicionais para uma maior personalização dos anúncios e dos conteúdos. A eficácia dos anúncios e dos conteúdos pode ser medida. Podem ser obtidas informações sobre o público que visualizou os anúncios e os conteúdos. Estes dados podem ser usados para desenvolver ou melhorar sistemas, softwares ou a experiência do utilizador.

Ao clicar em "Eu concordo”, permitirá o uso de cookies, identificadores do dispositivo e web beacons mencionados ou outras tecnologias semelhantes. As configurações do navegador do seu dispositivo podem ser alteradas.

Para certos fins, podem ser invocados interesses legítimos ao invés de consentimento. Pode ler mais informação sobre este assunto na nossa Política de Privacidade e Cookies.